Theta_e
332 333 337 341 338 337 337 343 352 349 350 349 348 347 345 343 343 343 342 341 337 336
329 335 338 346 346 342 343 343 347 347 347 347 347 347 346 345 345 344 343 338 337 335
326 333 337 343 343 344 345 344 344 345 347 348 348 348 349 347 347 345 340 337 338 340
325 330 335 336 339 341 343 343 343 345 346 347 348 349 348 344 345 340 336 337 336 336
325 329 332 334 337 340 341 343 343 345 346 348 348 348 345 342 341 336 334 337 339 337
325 329 332 333 337 340 341 342 343 345 346 347 347 345 342 344 341 340 341 339 337 338
327 331 332 334 337 339 341 342 344 345 346 347 345 344 343 342 340 339 334 335 339 337
331 333 333 334 337 339 341 342 344 345 345 345 344 341 342 338 336 333 336 337 336 337
333 332 333 336 337 338 341 343 344 344 344 343 340 311 315 328 335 336 336 335 335 335
335 332 333 334 334 335 338 342 342 344 343 342 339 307 309 315 336 336 336 335 333 331
333 331 332 333 334 335 340 342 342 341 339 334 321 303 303 310 337 336 335 335 334 332
331 330 331 333 334 337 339 337 337 334 330 322 315 301 303 321 334 332 332 332 332 332
332 332 334 333 334 335 336 332 326 326 330 319 321 299 302 320 330 328 326 327 328 306
332 333 333 333 333 330 329 324 325 324 324 324 321 313 300 306 329 327 327 327 328 321
Wind_Speed
12 10 11 13 11 9 10 11 10 13 13 13 13 11 10 8 9 10 11 13 8 5
12 13 12 14 12 11 10 11 11 13 12 13 12 11 11 8 10 10 10 8 8 6
13 13 14 13 14 12 11 12 11 12 12 13 11 11 12 10 10 10 7 6 10 9
14 14 13 13 13 13 12 13 13 13 13 12 12 13 12 10 10 10 9 7 9 9
15 13 13 14 14 14 14 12 13 13 12 12 13 14 13 11 10 10 9 11 10 10
17 14 15 15 14 15 14 14 14 14 14 15 15 14 11 12 11 11 11 11 11 10
17 16 15 14 14 15 15 15 15 14 15 15 15 14 13 12 10 9 8 8 9 9
17 16 14 14 14 14 14 14 14 15 14 14 13 11 13 10 10 9 9 8 8 8
16 15 15 13 14 13 14 15 16 16 16 15 10 13 13 11 8 10 9 8 7 7
16 16 15 15 14 16 16 16 17 16 15 14 12 14 14 12 9 8 7 7 6 6
16 15 16 14 16 16 15 16 15 14 14 13 8 12 13 11 9 7 6 6 7 7
12 15 18 19 18 15 14 14 14 14 13 12 8 10 13 11 8 8 7 6 6 6
13 15 17 18 17 14 14 14 11 11 11 12 13 8 10 10 7 9 6 6 6 5
12 13 14 16 16 16 15 13 12 13 11 12 11 8 8 8 8 8 7 7 6 4
Wind_Direction
264 242 226 223 220 214 217 224 207 204 201 195 189 186 178 192 200 197 206 206 194 195
260 244 233 228 215 214 212 225 206 195 190 191 185 169 175 190 190 193 196 190 185 198
263 248 235 225 225 216 209 209 194 187 185 185 164 171 178 180 184 187 183 180 189 195
262 249 241 230 224 222 208 197 196 188 183 168 168 175 175 178 174 186 170 175 188 187
263 254 237 226 219 213 207 196 187 185 183 169 173 173 173 173 177 166 173 184 188 186
258 248 236 224 214 205 199 188 184 181 176 172 172 169 170 179 175 181 185 178 187 183
257 238 227 218 207 202 193 182 179 176 174 171 167 169 170 173 171 163 167 173 187 187
257 243 218 205 196 191 186 179 169 165 167 167 166 169 165 163 153 157 173 176 192 196
252 229 206 187 182 172 175 168 162 163 166 164 168 137 138 143 154 172 172 180 187 190
232 212 190 174 165 169 164 158 159 160 160 160 150 144 139 145 163 163 172 180 187 196
211 194 180 165 161 159 154 152 151 151 145 138 122 135 134 145 153 152 165 180 179 177
187 180 172 158 152 148 137 139 140 134 131 119 121 132 136 148 153 148 159 161 165 167
177 176 165 148 138 130 129 128 115 111 124 123 133 135 135 153 149 145 141 125 125 55
165 152 148 128 126 121 122 112 107 118 124 126 129 139 141 155 148 145 148 145 134 102